Latest Coastal Weather Observations for Spring Bay

IDT60701

Issued at 4:41 am EDT Sunday 29 March 2015 (issued every 10 minutes, with the page automatically refreshed every 10 minutes)

About coastal observations | Map of coastal stations | Coastal observations for TAS | Marine services | Other Formats
Station Details ID: 092133 Name: SPRING BAY NTC AWS Lat: -42.55 Lon: 147.93 Height: 0.0 m
Data from the previous 72 hours. | See also: Recent months for locations in Tasmania
Date/Time
EDT
Temp

°C
Wind Pressure Rain
since 9am
mm
Weather Cloud Vis
km
Sea
Height
m
Swell
Dir
 
Speed
knots
Gust
knots
hPa Trend Height
m
Period
s
Dir
29/04:30am 13.0 - - - 1015.0 - - - - - - - - -
29/04:00am 12.7 - - - 1014.8 - - - - - - - - -
29/03:30am 12.1 - - - 1014.8 - - - - - - - - -
29/03:00am 12.0 - - - 1015.0 - - - - - - - - -
29/02:30am 11.8 - - - 1015.2 - - - - - - - - -
29/02:00am 11.4 - - - 1015.5 - - - - - - - - -
29/01:30am 10.6 - - - 1015.8 - - - - - - - - -
29/01:00am 10.8 - - - 1016.1 - - - - - - - - -
29/12:30am 10.5 - - - 1016.3 - - - - - - - - -
29/12:00am 10.5 - - - 1016.9 - - - - - - - - -
 
Date/Time
EDT
Temp

°C
Wind Pressure Rain
since 9am
mm
Weather Cloud Vis
km
Sea
Height
m
Swell
Dir
 
Speed
knots
Gust
knots
hPa Trend Height
m
Period
s
Dir
28/11:30pm 10.7 - - - 1017.2 - - - - - - - - -
28/11:00pm 11.2 - - - 1017.6 - - - - - - - - -
28/10:30pm 11.4 - - - 1017.9 - - - - - - - - -
28/10:00pm 11.8 - - - 1018.1 - - - - - - - - -
28/09:30pm 12.3 - - - 1018.1 - - - - - - - - -
28/09:00pm 12.7 - - - 1018.1 - - - - - - - - -
28/08:30pm 13.4 - - - 1018.0 - - - - - - - - -
28/08:00pm 13.9 - - - 1018.0 - - - - - - - - -
28/07:30pm 14.2 - - - 1018.1 - - - - - - - - -
28/07:00pm 14.7 - - - 1018.1 - - - - - - - - -
28/06:30pm 14.8 - - - 1018.1 - - - - - - - - -
28/06:00pm 15.3 - - - 1018.0 - - - - - - - - -
28/05:30pm 15.4 - - - 1018.0 - - - - - - - - -
28/05:00pm 15.2 - - - 1018.1 - - - - - - - - -
28/04:30pm 15.3 - - - 1018.3 - - - - - - - - -
28/04:00pm 15.2 - - - 1018.4 - - - - - - - - -
28/03:30pm 15.4 - - - 1018.5 - - - - - - - - -
28/03:00pm 15.3 - - - 1018.6 - - - - - - - - -
28/02:30pm 15.7 - - - 1018.7 - - - - - - - - -
28/02:00pm 16.1 - - - 1019.1 - - - - - - - - -
28/01:30pm 16.3 - - - 1019.6 - - - - - - - - -
28/01:00pm 16.0 - - - 1019.8 - - - - - - - - -
28/12:30pm 16.3 - - - 1020.2 - - - - - - - - -
28/12:00pm 15.4 - - - 1020.4 - - - - - - - - -
28/11:30am 15.0 - - - 1020.7 - - - - - - - - -
28/11:00am 15.6 - - - 1020.9 - - - - - - - - -
28/10:30am 14.7 - - - 1021.1 - - - - - - - - -
28/10:00am 14.7 - - - 1021.3 - - - - - - - - -
28/09:30am 14.1 - - - 1021.4 - - - - - - - - -
28/09:00am 12.7 - - - 1021.3 - - - - - - - - -
28/08:30am 12.1 - - - 1021.2 - - - - - - - - -
28/08:00am 12.0 - - - 1021.1 - - - - - - - - -
28/07:30am 12.0 - - - 1020.9 - - - - - - - - -
28/07:00am 12.1 - - - 1020.6 - - - - - - - - -
28/06:30am 12.2 - - - 1020.3 - - - - - - - - -
28/06:00am 12.1 - - - 1020.1 - - - - - - - - -
28/05:30am 12.1 - - - 1019.8 - - - - - - - - -
28/05:00am 12.3 - - - 1019.6 - - - - - - - - -
28/04:30am 12.3 - - - 1019.5 - - - - - - - - -
28/04:00am 12.0 - - - 1019.5 - - - - - - - - -
28/03:30am 12.3 - - - 1019.7 - - - - - - - - -
28/03:00am 12.5 - - - 1019.8 - - - - - - - - -
28/02:30am 13.0 - - - 1019.9 - - - - - - - - -
28/02:00am 12.9 - - - 1019.8 - - - - - - - - -
28/01:30am 13.1 - - - 1019.6 - - - - - - - - -
28/01:00am 13.3 - - - 1019.6 - - - - - - - - -
28/12:30am 13.3 - - - 1019.6 - - - - - - - - -
28/12:00am 13.3 - - - 1019.4 - - - - - - - - -
 
Date/Time
EDT
Temp

°C
Wind Pressure Rain
since 9am
mm
Weather Cloud Vis
km
Sea
Height
m
Swell
Dir
 
Speed
knots
Gust
knots
hPa Trend Height
m
Period
s
Dir
27/11:30pm 13.0 - - - 1019.4 - - - - - - - - -
27/11:00pm 13.5 - - - 1019.1 - - - - - - - - -
27/10:30pm 13.9 - - - 1019.0 - - - - - - - - -
27/10:00pm 13.2 - - - 1018.8 - - - - - - - - -
27/09:30pm 13.6 - - - 1018.5 - - - - - - - - -
27/09:00pm 14.2 - - - 1018.3 - - - - - - - - -
27/08:30pm 14.1 - - - 1018.0 - - - - - - - - -
27/08:00pm 13.4 - - - 1017.6 - - - - - - - - -
27/07:30pm 13.7 - - - 1017.0 - - - - - - - - -
27/07:00pm 14.5 - - - 1016.5 - - - - - - - - -
27/06:30pm 13.8 - - - 1016.1 - - - - - - - - -
27/06:00pm 15.0 - - - 1015.3 - - - - - - - - -
27/05:30pm 15.2 - - - 1014.9 - - - - - - - - -
27/05:00pm 15.5 - - - 1014.6 - - - - - - - - -
27/04:30pm 15.4 - - - 1014.4 - - - - - - - - -
27/04:00pm 15.3 - - - 1014.1 - - - - - - - - -
27/03:30pm 15.3 - - - 1013.9 - - - - - - - - -
27/03:00pm 15.3 - - - 1013.5 - - - - - - - - -
27/02:30pm 15.3 - - - 1012.9 - - - - - - - - -
27/02:00pm 15.1 - - - 1012.5 - - - - - - - - -
27/01:30pm 15.1 - - - 1012.1 - - - - - - - - -
27/01:00pm 14.7 - - - 1012.2 - - - - - - - - -
27/12:30pm 13.1 - - - 1012.0 - - - - - - - - -
27/12:00pm 12.4 - - - 1011.9 - - - - - - - - -
27/11:30am 12.3 - - - 1011.7 - - - - - - - - -
27/11:00am 10.9 - - - 1011.5 - - - - - - - - -
27/10:30am 10.4 - - - 1011.4 - - - - - - - - -
27/10:00am 10.5 - - - 1011.0 - - - - - - - - -
27/09:30am 10.6 - - - 1010.7 - - - - - - - - -
27/09:00am 10.2 - - - 1010.4 - - - - - - - - -
27/08:30am 10.0 - - - 1010.1 - - - - - - - - -
27/08:00am 10.3 - - - 1010.0 - - - - - - - - -
27/07:30am 10.5 - - - 1009.7 - - - - - - - - -
27/07:00am 10.1 - - - 1009.6 - - - - - - - - -
27/06:30am 9.9 - - - 1009.4 - - - - - - - - -
27/06:00am 9.8 - - - 1009.3 - - - - - - - - -
27/05:30am 9.8 - - - 1009.2 - - - - - - - - -
27/05:00am 9.4 - - - 1009.2 - - - - - - - - -
27/04:30am 9.6 - - - 1009.2 - - - - - - - - -
27/04:00am 9.5 - - - 1009.5 - - - - - - - - -
27/03:30am 10.0 - - - 1009.8 - - - - - - - - -
27/03:00am 10.2 - - - 1010.1 - - - - - - - - -
27/02:30am 10.1 - - - 1010.2 - - - - - - - - -
27/02:00am 10.4 - - - 1010.2 - - - - - - - - -
27/01:30am 10.6 - - - 1010.4 - - - - - - - - -
27/01:00am 10.9 - - - 1010.5 - - - - - - - - -
27/12:30am 10.9 - - - 1010.8 - - - - - - - - -
27/12:00am 11.4 - - - 1010.7 - - - - - - - - -
 
Date/Time
EDT
Temp

°C
Wind Pressure Rain
since 9am
mm
Weather Cloud Vis
km
Sea
Height
m
Swell
Dir
 
Speed
knots
Gust
knots
hPa Trend Height
m
Period
s
Dir
26/11:30pm 11.7 - - - 1010.7 - - - - - - - - -
26/11:00pm 11.9 - - - 1010.5 - - - - - - - - -
26/10:30pm 12.1 - - - 1011.0 - - - - - - - - -
26/10:00pm 12.3 - - - 1011.1 - - - - - - - - -
26/09:30pm 12.5 - - - 1011.3 - - - - - - - - -
26/09:00pm 12.6 - - - 1011.0 - - - - - - - - -
26/08:30pm 13.0 - - - 1010.6 - - - - - - - - -
26/08:00pm 13.1 - - - 1010.3 - - - - - - - - -
26/07:30pm 13.9 - - - 1010.0 - - - - - - - - -
26/07:00pm 14.6 - - - 1009.9 - - - - - - - - -
26/06:30pm 14.9 - - - 1009.6 - - - - - - - - -
26/06:00pm 14.9 - - - 1009.4 - - - - - - - - -
26/05:30pm 14.9 - - - 1009.4 - - - - - - - - -
26/05:00pm 15.0 - - - 1009.5 - - - - - - - - -
26/04:30pm 14.6 - - - 1009.4 - - - - - - - - -
26/04:00pm 15.5 - - - 1009.7 - - - - - - - - -

Other Formats:

Comma delimited format used in spreadsheet applications
http://www.bom.gov.au/fwo/IDT60701/IDT60701.95987.axf

JavaScript Object Notation format (JSON) in row-major order
http://www.bom.gov.au/fwo/IDT60701/IDT60701.95987.json